Scappoose, OR

2:08 PM PDT on August 28, 2016 (GMT -0700)
Scappoose Industrial

Weather History for KSPB - July, 2013

Change the Weather History Date:

Wednesday, July 3, 2013

  Actual Average Record
Temperature  
Mean Temperature 69 °F -  
Max Temperature 82 °F - 96 °F (2015)
Min Temperature 57 °F - 44 °F (1999)
Degree Days  
Heating Degree Days 0    
Month to date heating degree days 0  
Since 1 June heating degree days 102  
Since 1 July heating degree days 0  
Cooling Degree Days 5    
Month to date cooling degree days 26  
Year to date cooling degree days 80  
Since 1 June cooling degree days 72  
Growing Degree Days 19 (Base 50)    
Moisture  
Dew Point 50 °F    
Average Humidity 51    
Maximum Humidity 72    
Minimum Humidity 30    
Precipitation  
Precipitation 0.00 in - 0.26 in (2000)
Month to date precipitation 0.00  
Year to date precipitation 13.89  
Sea Level Pressure  
Sea Level Pressure 30.10 in    
Wind  
Wind Speed 8 mph (North)    
Max Wind Speed 14 mph    
Max Gust Speed 20 mph    
Visibility 10 miles    
Events      
T = Trace of Precipitation, MM = Missing Value Source: NWS Daily Summary

Daily Weather History Graph

Daily Weather History Graph

Search for Another Location

Airport or City:

Trip Planner

Search our weather history database for the weather conditions in past years. The results will help you decide how hot, cold, wet, or windy it might be!

Date:

Astronomy

Jul. 03, 2013 Rise Set
Actual Time 5:26 AM PDT 9:04 PM PDT
Civil Twilight 4:49 AM PDT 9:42 PM PDT
Nautical Twilight 3:58 AM PDT 10:32 PM PDT
Astronomical Twilight 2:50 AM PDT 11:39 PM PDT
Moon 2:14 AM PDT (7/3) 5:14 PM PDT (7/3)
Length of Visible Light 16h 53m
Length of Day
15h 37m
Waning Crescent, 17% of the Moon is Illuminated
Jul 3
Waning Crescent
Jul 8
New
Jul 15
First Quarter
Jul 22
Full
Jul 29
Last Quarter

Hourly Weather History & Observations

Time (PDT) Temp. Dew Point Humidity Pressure Visibility Wind Dir Wind Speed Gust Speed Precip Events Conditions
12:53 AM 64.0 °F 52.0 °F 65% 30.09 in 10.0 mi North 6.9 mph - N/A   Clear
1:53 AM 63.0 °F 50.0 °F 63% 30.09 in 10.0 mi North 5.8 mph - N/A   Clear
2:53 AM 61.0 °F 50.0 °F 67% 30.10 in 10.0 mi North 5.8 mph - N/A   Clear
3:53 AM 61.0 °F 48.0 °F 62% 30.11 in 10.0 mi NNW 6.9 mph - N/A   Clear
4:53 AM 57.9 °F 48.0 °F 70% 30.13 in 10.0 mi North 5.8 mph - N/A   Clear
5:53 AM 57.0 °F 48.9 °F 74% 30.14 in 10.0 mi North 4.6 mph - N/A   Clear
6:53 AM 60.1 °F 48.9 °F 67% 30.14 in 10.0 mi North 4.6 mph - N/A   Clear
7:53 AM 63.0 °F 48.0 °F 58% 30.14 in 10.0 mi NNW 5.8 mph - N/A   Clear
8:53 AM 66.0 °F 48.9 °F 54% 30.14 in 10.0 mi NNW 4.6 mph - N/A   Clear
9:53 AM 69.1 °F 48.9 °F 49% 30.13 in 10.0 mi NNE 8.1 mph - N/A   Clear
10:53 AM 72.0 °F 50.0 °F 46% 30.12 in 10.0 mi NNE 6.9 mph - N/A   Clear
11:53 AM 73.9 °F 52.0 °F 46% 30.12 in 10.0 mi NE 6.9 mph - N/A   Clear
12:53 PM 77.0 °F 54.0 °F 45% 30.11 in 10.0 mi ENE 6.9 mph - N/A   Clear
1:53 PM 80.1 °F 51.1 °F 36% 30.09 in 10.0 mi NE 6.9 mph - N/A   Clear
2:53 PM 81.0 °F 46.0 °F 29% 30.07 in 10.0 mi North 9.2 mph - N/A   Clear
3:53 PM 81.0 °F 48.9 °F 33% 30.06 in 10.0 mi NNE 11.5 mph - N/A   Clear
4:53 PM 81.0 °F 51.1 °F 35% 30.04 in 10.0 mi North 11.5 mph - N/A   Clear
5:53 PM 81.0 °F 51.1 °F 35% 30.03 in 10.0 mi NW 5.8 mph - N/A   Clear
6:53 PM 77.0 °F 50.0 °F 39% 30.03 in 10.0 mi WNW 6.9 mph - N/A   Clear
7:53 PM 72.0 °F 48.0 °F 43% 30.05 in 10.0 mi NW 8.1 mph - N/A   Clear
8:53 PM 66.9 °F 48.9 °F 52% 30.06 in 10.0 mi NNW 9.2 mph 16.1 mph N/A   Clear
9:53 PM 63.0 °F 48.0 °F 58% 30.09 in 10.0 mi NNW 13.8 mph - N/A   Clear
10:53 PM 60.1 °F 48.9 °F 67% 30.11 in 10.0 mi NNW 11.5 mph - N/A   Clear
11:53 PM 59.0 °F 48.9 °F 69% 30.10 in 10.0 mi NNW 10.4 mph - N/A   Clear